Weather History for Ely, MN

Change the Weather History Date:

Tuesday, January 22, 2013

  Actual Average Record
Temperature  
Mean Temperature -18 °F -  
Max Temperature -5 °F 15 °F 33 °F (2002)
Min Temperature -32 °F -1 °F -32 °F (2013)
Degree Days  
Heating Degree Days 84    
Moisture  
Dew Point -25 °F    
Average Humidity 73    
Maximum Humidity 84    
Minimum Humidity 59    
Precipitation  
Precipitation 0.00 in - - ()
Sea Level Pressure  
Sea Level Pressure 30.12 in    
Wind  
Wind Speed 3 mph (WSW)    
Max Wind Speed 10 mph    
Max Gust Speed -    
Visibility 10 miles    
Events      
Averages and records for this station are not official NWS values.
T = Trace of Precipitation, MM = Missing Value Source: NWS Daily Summary

Daily Weather History Graph

Daily Weather History Graph

Search for Another Location

Airport:

Trip Planner

Search our weather history database for the weather conditions in past years. The results will help you decide how hot, cold, wet, or windy it might be!

Date:

Astronomy

Jan. 22, 2013 Rise Set
Actual Time 7:45 AM CST 4:52 PM CST
Civil Twilight 7:11 AM CST 5:27 PM CST
Nautical Twilight 6:33 AM CST 6:05 PM CST
Astronomical Twilight 5:56 AM CST 6:41 PM CST
Moon 1:12 PM CST (1/22) 4:10 AM CST (1/22)
Length of Visible Light 10h 15m
Length of Day
9h 07m
Waxing Gibbous, 83% of the Moon is Illuminated
Jan 22
Waxing Gibbous
Jan 26
Full
Feb 3
Last Quarter
Feb 10
New
Feb 17
First Quarter

Hourly Weather History & Observations

Time (CST) Temp. Windchill Dew Point Humidity Pressure Visibility Wind Dir Wind Speed Gust Speed Precip Events Conditions
12:13 AM -23.8 °F -35.0 °F -29.2 °F 76% 30.11 in 10.0 mi West 3.5 mph - N/A   Clear
12:33 AM -23.8 °F -35.0 °F -29.2 °F 76% 30.11 in 10.0 mi West 3.5 mph - N/A   Clear
12:53 AM -23.8 °F -35.0 °F -29.2 °F 76% 30.11 in 10.0 mi West 3.5 mph - N/A   Clear
1:13 AM -23.8 °F -35.0 °F -29.2 °F 76% 30.12 in 10.0 mi West 3.5 mph - N/A   Clear
1:32 AM -25.6 °F -37.1 °F -31.0 °F 76% 30.13 in 10.0 mi West 3.5 mph - N/A   Clear
1:53 AM -25.6 °F -37.1 °F -31.0 °F 76% 30.13 in 10.0 mi WSW 3.5 mph - N/A   Clear
2:13 AM -27.4 °F -39.2 °F -34.6 °F 69% 30.14 in 10.0 mi WSW 3.5 mph - N/A   Clear
2:32 AM -27.4 °F - -34.6 °F 69% - 10.0 mi Calm Calm - N/A   Clear
2:53 AM -27.4 °F - -32.8 °F 75% - 10.0 mi Calm Calm - N/A   Clear
3:13 AM -27.4 °F - -34.6 °F 69% - 10.0 mi Calm Calm - N/A   Clear
3:32 AM -29.2 °F -41.2 °F -34.6 °F 75% - 10.0 mi SW 3.5 mph - N/A   Clear
3:53 AM -32.8 °F - -38.2 °F 75% - 10.0 mi Calm Calm - N/A   Clear
4:13 AM -31.0 °F - -38.2 °F 68% - 10.0 mi Calm Calm - N/A   Clear
4:32 AM -32.8 °F -45.3 °F -38.2 °F 75% - 10.0 mi WSW 3.5 mph - N/A   Clear
4:53 AM -29.2 °F - -34.6 °F 75% - 10.0 mi Calm Calm - N/A   Clear
5:13 AM -32.8 °F -45.3 °F -40.0 °F 68% - 10.0 mi WSW 3.5 mph - N/A   Clear
5:32 AM -29.2 °F - -36.4 °F 68% - 10.0 mi Calm Calm - N/A   Clear
5:53 AM -32.8 °F -45.3 °F -38.2 °F 75% - 10.0 mi SW 3.5 mph - N/A   Clear
6:13 AM -29.2 °F - -36.4 °F 68% - 10.0 mi Calm Calm - N/A   Clear
6:33 AM -31.0 °F - -38.2 °F 68% - 10.0 mi Calm Calm - N/A   Clear
6:52 AM -29.2 °F - -36.4 °F 68% - 10.0 mi Calm Calm - N/A   Clear
7:13 AM -29.2 °F -41.2 °F -34.6 °F 75% - 10.0 mi SSW 3.5 mph - N/A   Clear
7:33 AM -29.2 °F -41.2 °F -34.6 °F 75% - 10.0 mi SSW 3.5 mph - N/A   Clear
7:52 AM -29.2 °F - -36.4 °F 68% - 10.0 mi Calm Calm - N/A   Clear
8:13 AM -29.2 °F -41.2 °F -34.6 °F 75% - 10.0 mi WSW 3.5 mph - N/A   Clear
8:33 AM -27.4 °F -41.9 °F -32.8 °F 75% - 10.0 mi WSW 4.6 mph - N/A   Clear
8:53 AM -25.6 °F -39.8 °F -32.8 °F 69% - 10.0 mi WSW 4.6 mph - N/A   Clear
9:13 AM -23.8 °F -35.0 °F -29.2 °F 76% - 10.0 mi WSW 3.5 mph - N/A   Clear
9:32 AM -22.0 °F -37.7 °F -27.4 °F 76% - 10.0 mi WSW 5.8 mph - N/A   Clear
9:53 AM -20.2 °F -35.5 °F -25.6 °F 76% 30.20 in 10.0 mi WSW 5.8 mph - N/A   Clear
10:13 AM -18.4 °F -28.9 °F -25.6 °F 70% 30.19 in 10.0 mi SW 3.5 mph - N/A   Clear
10:32 AM -16.6 °F -26.8 °F -23.8 °F 70% 30.19 in 10.0 mi West 3.5 mph - N/A   Clear
10:53 AM -16.6 °F -26.8 °F -22.0 °F 76% 30.19 in 10.0 mi SW 3.5 mph - N/A   Clear
11:12 AM -13.0 °F -25.1 °F -20.2 °F 70% 30.18 in 10.0 mi West 4.6 mph - N/A   Clear
11:33 AM -11.2 °F -30.1 °F -20.2 °F 64% 30.18 in 10.0 mi WNW 10.4 mph - N/A   Clear
11:53 AM -11.2 °F -26.4 °F -20.2 °F 64% 30.17 in 10.0 mi West 6.9 mph - N/A   Clear
12:12 PM -9.4 °F -18.6 °F -18.4 °F 65% 30.16 in 10.0 mi West 3.5 mph - N/A   Clear
12:33 PM -7.6 °F -18.8 °F -18.4 °F 59% 30.14 in 10.0 mi SW 4.6 mph - N/A   Clear
12:53 PM -7.6 °F - -16.6 °F 65% 30.14 in 10.0 mi Calm Calm - N/A   Clear
1:12 PM -7.6 °F -20.6 °F -16.6 °F 65% 30.14 in 10.0 mi WSW 5.8 mph - N/A   Clear
1:33 PM -7.6 °F -23.4 °F -16.6 °F 65% 30.13 in 10.0 mi WSW 8.1 mph - N/A   Clear
1:53 PM -7.6 °F -23.4 °F -16.6 °F 65% 30.13 in 10.0 mi West 8.1 mph - N/A   Clear
2:12 PM -7.6 °F -22.1 °F -16.6 °F 65% 30.13 in 10.0 mi West 6.9 mph - N/A   Clear
2:33 PM -7.6 °F -22.1 °F -16.6 °F 65% 30.13 in 10.0 mi WSW 6.9 mph - N/A   Clear
2:53 PM -5.8 °F -19.9 °F -16.6 °F 60% 30.13 in 10.0 mi West 6.9 mph - N/A   Clear
3:12 PM -5.8 °F -14.5 °F -16.6 °F 60% 30.13 in 10.0 mi West 3.5 mph - N/A   Clear
3:33 PM -5.8 °F -16.7 °F -14.8 °F 65% 30.13 in 10.0 mi West 4.6 mph - N/A   Clear
3:53 PM -5.8 °F -18.4 °F -14.8 °F 65% 30.13 in 10.0 mi West 5.8 mph - N/A   Clear
4:13 PM -5.8 °F -18.4 °F -14.8 °F 65% 30.13 in 10.0 mi WNW 5.8 mph - N/A   Clear
4:33 PM -5.8 °F -14.5 °F -14.8 °F 65% 30.12 in 10.0 mi West 3.5 mph - N/A   Clear
4:53 PM -7.6 °F -18.8 °F -14.8 °F 71% 30.12 in 10.0 mi West 4.6 mph - N/A   Clear
5:13 PM -7.6 °F - -14.8 °F 71% 30.12 in 10.0 mi Calm Calm - N/A   Clear
5:33 PM -7.6 °F - -14.8 °F 71% 30.12 in 10.0 mi Calm Calm - N/A   Clear
5:53 PM -9.4 °F - -16.6 °F 71% 30.12 in 10.0 mi Calm Calm - N/A   Clear
6:13 PM -13.0 °F - -16.6 °F 84% 30.11 in 10.0 mi Calm Calm - N/A   Clear
6:33 PM -14.8 °F - -18.4 °F 84% 30.11 in 10.0 mi Calm Calm - N/A   Clear
6:52 PM -16.6 °F - -20.2 °F 84% 30.10 in 10.0 mi Calm Calm - N/A   Clear
7:13 PM -16.6 °F - -20.2 °F 84% 30.09 in 10.0 mi Calm Calm - N/A   Clear
7:33 PM -16.6 °F - -22.0 °F 76% 30.09 in 10.0 mi Calm Calm - N/A   Clear
7:53 PM -14.8 °F -24.8 °F -18.4 °F 84% 30.08 in 10.0 mi SSW 3.5 mph - N/A   Clear
8:13 PM -16.6 °F -26.8 °F -22.0 °F 76% 30.08 in 10.0 mi SW 3.5 mph - N/A   Clear
8:33 PM -14.8 °F - -18.4 °F 84% 30.07 in 10.0 mi Calm Calm - N/A   Clear
8:53 PM -16.6 °F - -20.2 °F 84% 30.07 in 10.0 mi Calm Calm - N/A   Clear
9:13 PM -14.8 °F - -20.2 °F 77% 30.07 in 10.0 mi Calm Calm - N/A   Clear
9:33 PM -13.0 °F -22.7 °F -18.4 °F 77% 30.07 in 10.0 mi SSW 3.5 mph - N/A   Clear
9:53 PM -13.0 °F -22.7 °F -18.4 °F 77% 30.06 in 10.0 mi SSW 3.5 mph - N/A   Clear
10:13 PM -13.0 °F - -18.4 °F 77% 30.06 in 7.0 mi Calm Calm - N/A   Clear
10:33 PM -14.8 °F -24.8 °F -18.4 °F 84% 30.06 in 10.0 mi SW 3.5 mph - N/A   Clear
10:53 PM -14.8 °F - -18.4 °F 84% 30.06 in 10.0 mi Calm Calm - N/A   Clear
11:13 PM -14.8 °F - -18.4 °F 84% 30.06 in 10.0 mi Calm Calm - N/A   Clear
11:33 PM -20.2 °F - -25.6 °F 76% 30.07 in 10.0 mi Calm Calm - N/A   Clear
11:53 PM -20.2 °F -30.9 °F -25.6 °F 76% 30.07 in 10.0 mi WSW 3.5 mph - N/A   Clear